Year,Month,Day,Hour,Minute,Value (Times are PST for temperature in C)
2011,08,23,08,52,16.40
2011,08,23,08,53,16.50
2011,08,23,08,54,16.50
2011,08,23,08,55,16.60
2011,08,23,08,56,16.70
2011,08,23,08,57,16.70
2011,08,23,08,58,16.80
2011,08,23,08,59,16.80
2011,08,23,09,00,16.90
2011,08,23,09,01,16.90
2011,08,23,09,02,17.00
2011,08,23,09,03,17.00
2011,08,23,09,04,17.00
2011,08,23,09,05,17.10
2011,08,23,09,06,17.10
2011,08,23,09,07,17.10
2011,08,23,09,08,17.10
2011,08,23,09,09,17.10
2011,08,23,09,10,17.10
2011,08,23,09,11,17.10
2011,08,23,09,12,17.10
2011,08,23,09,13,17.10
2011,08,23,09,14,17.10
2011,08,23,09,15,17.10
2011,08,23,09,16,17.10
2011,08,23,09,17,17.20
2011,08,23,09,18,17.20
2011,08,23,09,19,17.20
2011,08,23,09,20,17.30
2011,08,23,09,21,17.40
2011,08,23,09,22,17.40
2011,08,23,09,23,17.40
2011,08,23,09,24,17.50
2011,08,23,09,25,17.50
2011,08,23,09,26,17.60
2011,08,23,09,27,17.60
2011,08,23,09,28,17.70
2011,08,23,09,29,17.70
2011,08,23,09,30,17.70
2011,08,23,09,31,17.70
2011,08,23,09,32,17.70
2011,08,23,09,33,17.70
2011,08,23,09,34,17.80
2011,08,23,09,35,17.80
2011,08,23,09,36,17.80
2011,08,23,09,37,17.80
2011,08,23,09,38,17.90
2011,08,23,09,39,17.90
2011,08,23,09,40,18.00
2011,08,23,09,41,18.00
2011,08,23,09,42,18.00
2011,08,23,09,43,18.00
2011,08,23,09,44,18.00
2011,08,23,09,45,18.10
2011,08,23,09,46,18.10
2011,08,23,09,47,18.10
2011,08,23,09,48,18.10
2011,08,23,09,49,18.10
2011,08,23,09,50,18.10
2011,08,23,09,51,18.10
2011,08,23,09,52,18.10
2011,08,23,09,53,18.00
2011,08,23,09,54,18.00
2011,08,23,09,55,18.00
2011,08,23,09,56,18.00
2011,08,23,09,57,18.00
2011,08,23,09,58,18.00
2011,08,23,09,59,18.00
2011,08,23,10,00,18.00
2011,08,23,10,01,17.90
2011,08,23,10,02,17.90
2011,08,23,10,03,17.90
2011,08,23,10,04,17.90
2011,08,23,10,05,17.90
2011,08,23,10,06,17.80
2011,08,23,10,07,17.90
2011,08,23,10,08,17.90
2011,08,23,10,09,17.80
2011,08,23,10,10,17.80
2011,08,23,10,11,17.80
2011,08,23,10,12,17.90
2011,08,23,10,13,17.90
2011,08,23,10,14,17.90
2011,08,23,10,15,17.90
2011,08,23,10,16,17.80
2011,08,23,10,17,17.80
2011,08,23,10,18,17.80
2011,08,23,10,19,17.80
2011,08,23,10,20,17.80
2011,08,23,10,21,17.80
2011,08,23,10,22,17.80
2011,08,23,10,23,17.80
2011,08,23,10,24,17.80
2011,08,23,10,25,17.80
2011,08,23,10,26,17.80
2011,08,23,10,27,17.80
2011,08,23,10,28,17.90
2011,08,23,10,29,17.90
2011,08,23,10,30,17.90
2011,08,23,10,31,17.90
2011,08,23,10,32,18.00
2011,08,23,10,33,18.00
2011,08,23,10,34,18.10
2011,08,23,10,35,18.10
2011,08,23,10,36,18.10
2011,08,23,10,37,18.20
2011,08,23,10,38,18.20
2011,08,23,10,39,18.30
2011,08,23,10,40,18.30
2011,08,23,10,41,18.40
2011,08,23,10,42,18.40
2011,08,23,10,43,18.50
2011,08,23,10,44,18.50
2011,08,23,10,45,18.60
2011,08,23,10,46,18.60
2011,08,23,10,47,18.70
2011,08,23,10,48,18.70
2011,08,23,10,49,18.70
2011,08,23,10,50,18.80
2011,08,23,10,51,18.80
2011,08,23,10,52,18.90
2011,08,23,10,53,18.90
2011,08,23,10,54,18.90
2011,08,23,10,55,18.90
2011,08,23,10,56,19.00
2011,08,23,10,57,19.00
2011,08,23,10,58,19.10
2011,08,23,10,59,19.10
2011,08,23,11,00,19.10
2011,08,23,11,01,19.20
2011,08,23,11,02,19.20
2011,08,23,11,03,19.20
2011,08,23,11,04,19.30
2011,08,23,11,05,19.30
2011,08,23,11,06,19.40
2011,08,23,11,07,19.40
2011,08,23,11,08,19.40
2011,08,23,11,09,19.50
2011,08,23,11,10,19.50
2011,08,23,11,11,19.50
2011,08,23,11,12,19.60
2011,08,23,11,13,19.60
2011,08,23,11,14,19.60
2011,08,23,11,15,19.60
2011,08,23,11,16,19.60
2011,08,23,11,17,19.60
2011,08,23,11,18,19.60
2011,08,23,11,19,19.60
2011,08,23,11,20,19.60
2011,08,23,11,21,19.60
2011,08,23,11,22,19.60
2011,08,23,11,23,19.70
2011,08,23,11,24,19.70
2011,08,23,11,25,19.60
2011,08,23,11,26,19.60
2011,08,23,11,27,19.60
2011,08,23,11,28,19.60
2011,08,23,11,29,19.60
2011,08,23,11,30,19.60
2011,08,23,11,31,19.50
2011,08,23,11,32,19.50
2011,08,23,11,33,19.50
2011,08,23,11,34,19.40
2011,08,23,11,35,19.30
2011,08,23,11,36,19.30
2011,08,23,11,37,19.20
2011,08,23,11,38,19.10
2011,08,23,11,39,19.10
2011,08,23,11,40,19.10
2011,08,23,11,41,19.00
2011,08,23,11,42,18.90
2011,08,23,11,43,18.80
2011,08,23,11,44,18.80
2011,08,23,11,45,18.80
2011,08,23,11,46,18.70
2011,08,23,11,47,18.60
2011,08,23,11,48,18.60
2011,08,23,11,49,18.60
2011,08,23,11,50,18.60
2011,08,23,11,51,18.60
2011,08,23,11,52,18.50
2011,08,23,11,53,18.50
2011,08,23,11,54,18.60
2011,08,23,11,55,18.60
2011,08,23,11,56,18.60
2011,08,23,11,57,18.60
2011,08,23,11,58,18.60
2011,08,23,11,59,18.60
2011,08,23,12,00,18.60
2011,08,23,12,01,18.60
2011,08,23,12,02,18.70
2011,08,23,12,03,18.70
2011,08,23,12,04,18.70
2011,08,23,12,05,18.80
2011,08,23,12,06,18.80
2011,08,23,12,07,18.80
2011,08,23,12,08,18.80
2011,08,23,12,09,18.90
2011,08,23,12,10,18.90
2011,08,23,12,11,19.00
2011,08,23,12,12,19.00
2011,08,23,12,13,19.10
2011,08,23,12,14,19.20
2011,08,23,12,15,19.20
2011,08,23,12,16,19.30
2011,08,23,12,17,19.40
2011,08,23,12,18,19.50
2011,08,23,12,19,19.70
2011,08,23,12,20,19.80
2011,08,23,12,21,19.90
2011,08,23,12,22,19.90
2011,08,23,12,23,20.00
2011,08,23,12,24,20.10
2011,08,23,12,25,20.10
2011,08,23,12,26,20.10
2011,08,23,12,27,20.10
2011,08,23,12,28,20.10
2011,08,23,12,29,20.10
2011,08,23,12,30,20.10
2011,08,23,12,31,20.10
2011,08,23,12,32,20.10
2011,08,23,12,33,20.10
2011,08,23,12,34,20.10
2011,08,23,12,35,20.10
2011,08,23,12,36,20.10
2011,08,23,12,37,20.10
2011,08,23,12,38,20.10
2011,08,23,12,39,20.20
2011,08,23,12,40,20.20
2011,08,23,12,41,20.20
2011,08,23,12,42,20.20
2011,08,23,12,43,20.20
2011,08,23,12,44,20.30
2011,08,23,12,45,20.30
2011,08,23,12,46,20.30
2011,08,23,12,47,20.30
2011,08,23,12,48,20.30
2011,08,23,12,49,20.30
2011,08,23,12,50,20.30
2011,08,23,12,51,20.40
2011,08,23,12,52,20.50
2011,08,23,12,53,20.60
2011,08,23,12,54,20.70
2011,08,23,12,55,20.80
2011,08,23,12,56,20.90
2011,08,23,12,57,21.00
2011,08,23,12,58,21.20
2011,08,23,12,59,21.30
2011,08,23,13,00,21.30
2011,08,23,13,01,21.20
2011,08,23,13,02,21.20
2011,08,23,13,03,21.00
2011,08,23,13,04,21.00
2011,08,23,13,05,20.90
2011,08,23,13,06,20.90
2011,08,23,13,07,20.90
2011,08,23,13,08,20.80
2011,08,23,13,09,20.70
2011,08,23,13,10,20.70
2011,08,23,13,11,20.60
2011,08,23,13,12,20.60
2011,08,23,13,13,20.60
2011,08,23,13,14,20.60
2011,08,23,13,15,20.70
2011,08,23,13,16,20.70
2011,08,23,13,17,20.60
2011,08,23,13,18,20.60
2011,08,23,13,19,20.60
2011,08,23,13,20,20.40
2011,08,23,13,21,20.40
2011,08,23,13,22,20.30
2011,08,23,13,23,20.20
2011,08,23,13,24,20.20
2011,08,23,13,25,20.10
2011,08,23,13,26,20.10
2011,08,23,13,27,20.10
2011,08,23,13,28,20.00
2011,08,23,13,29,20.00
2011,08,23,13,30,20.00
2011,08,23,13,31,20.00
2011,08,23,13,32,20.00
2011,08,23,13,33,20.00
2011,08,23,13,34,20.00
2011,08,23,13,35,20.10
2011,08,23,13,36,20.10
2011,08,23,13,37,20.10
2011,08,23,13,38,20.10
2011,08,23,13,39,20.10
2011,08,23,13,40,20.10
2011,08,23,13,41,20.10
2011,08,23,13,42,20.10
2011,08,23,13,43,20.10
2011,08,23,13,44,20.10
2011,08,23,13,45,20.00
2011,08,23,13,46,20.00
2011,08,23,13,47,20.00
2011,08,23,13,48,20.00
2011,08,23,13,49,20.00
2011,08,23,13,50,19.90
2011,08,23,13,51,19.90
2011,08,23,13,52,19.80
2011,08,23,13,53,19.80
2011,08,23,13,54,19.80
2011,08,23,13,55,19.80
2011,08,23,13,56,19.80
2011,08,23,13,57,19.80
2011,08,23,13,58,19.80
2011,08,23,13,59,19.80
2011,08,23,14,00,19.80
2011,08,23,14,01,19.80
2011,08,23,14,02,19.80
2011,08,23,14,03,19.90
2011,08,23,14,04,19.90
2011,08,23,14,05,19.90
2011,08,23,14,06,19.90
2011,08,23,14,07,19.90
2011,08,23,14,08,19.90
2011,08,23,14,09,19.90
2011,08,23,14,10,20.00
2011,08,23,14,11,20.00
2011,08,23,14,12,20.00
2011,08,23,14,13,20.00
2011,08,23,14,14,20.00
2011,08,23,14,15,20.00
2011,08,23,14,16,20.00
2011,08,23,14,17,20.00
2011,08,23,14,18,20.00
2011,08,23,14,19,20.00
2011,08,23,14,20,20.10
2011,08,23,14,21,20.10
2011,08,23,14,22,20.10
2011,08,23,14,23,20.10
2011,08,23,14,24,20.20
2011,08,23,14,25,20.20
2011,08,23,14,26,20.20
2011,08,23,14,27,20.30
2011,08,23,14,28,20.30
2011,08,23,14,29,20.30
2011,08,23,14,30,20.40
2011,08,23,14,31,20.40
2011,08,23,14,32,20.40
2011,08,23,14,33,20.40
2011,08,23,14,34,20.40
2011,08,23,14,35,20.40
2011,08,23,14,36,20.40
2011,08,23,14,37,20.30
2011,08,23,14,38,20.30
2011,08,23,14,39,20.30
2011,08,23,14,40,20.30
2011,08,23,14,41,20.30
2011,08,23,14,42,20.40
2011,08,23,14,43,20.40
2011,08,23,14,44,20.40
2011,08,23,14,45,20.40
2011,08,23,14,46,20.40
2011,08,23,14,47,20.50
2011,08,23,14,48,20.60
2011,08,23,14,49,20.70
2011,08,23,14,50,20.80
2011,08,23,14,51,20.80
2011,08,23,14,52,20.80
2011,08,23,14,53,20.90
2011,08,23,14,54,21.00
2011,08,23,14,55,21.00
2011,08,23,14,56,21.10
2011,08,23,14,57,21.10
2011,08,23,14,58,21.10
2011,08,23,14,59,21.10
2011,08,23,15,00,21.20
2011,08,23,15,01,21.20
2011,08,23,15,02,21.20
2011,08,23,15,03,21.30
2011,08,23,15,04,21.30
2011,08,23,15,05,21.30
2011,08,23,15,06,21.30
2011,08,23,15,07,21.30
2011,08,23,15,08,21.30
2011,08,23,15,09,21.30
2011,08,23,15,10,21.30
2011,08,23,15,11,21.30
2011,08,23,15,12,21.30
2011,08,23,15,13,21.30
2011,08,23,15,14,21.30
2011,08,23,15,15,21.40
2011,08,23,15,16,21.40
2011,08,23,15,17,21.40
2011,08,23,15,18,21.30
2011,08,23,15,19,21.30
2011,08,23,15,20,21.30
2011,08,23,15,21,21.40
2011,08,23,15,22,21.40
2011,08,23,15,23,21.40
2011,08,23,15,24,21.40
2011,08,23,15,25,21.40
2011,08,23,15,26,21.40
2011,08,23,15,27,21.30
2011,08,23,15,28,21.30
2011,08,23,15,29,21.30
2011,08,23,15,30,21.30
2011,08,23,15,31,21.30
2011,08,23,15,32,21.20
2011,08,23,15,33,21.20
2011,08,23,15,34,21.20
2011,08,23,15,35,21.20
2011,08,23,15,36,21.20
2011,08,23,15,37,21.20
2011,08,23,15,38,21.20
2011,08,23,15,39,21.20
2011,08,23,15,40,21.10
2011,08,23,15,41,21.10
2011,08,23,15,42,21.20
2011,08,23,15,43,21.20
2011,08,23,15,44,21.30
2011,08,23,15,45,21.30
2011,08,23,15,46,21.30
2011,08,23,15,47,21.30
2011,08,23,15,48,21.30
2011,08,23,15,49,21.30
2011,08,23,15,50,21.30
2011,08,23,15,51,21.30
2011,08,23,15,52,21.30
2011,08,23,15,53,21.30
2011,08,23,15,54,21.30
2011,08,23,15,55,21.30
2011,08,23,15,56,21.30
2011,08,23,15,57,21.40
2011,08,23,15,58,21.40
2011,08,23,15,59,21.40
2011,08,23,16,00,21.40
2011,08,23,16,01,21.40
2011,08,23,16,02,21.40
2011,08,23,16,03,21.40
2011,08,23,16,04,21.40
2011,08,23,16,05,21.40
2011,08,23,16,06,21.40
2011,08,23,16,07,21.30
2011,08,23,16,08,21.30
2011,08,23,16,09,21.30
2011,08,23,16,10,21.30
2011,08,23,16,11,21.20
2011,08,23,16,12,21.20
2011,08,23,16,13,21.20
2011,08,23,16,14,21.20
2011,08,23,16,15,21.20
2011,08,23,16,16,21.20
2011,08,23,16,17,21.20
2011,08,23,16,18,21.20
2011,08,23,16,19,21.10
2011,08,23,16,20,21.10
2011,08,23,16,21,21.00
2011,08,23,16,22,21.00
2011,08,23,16,23,20.90
2011,08,23,16,24,20.80
2011,08,23,16,25,20.80
2011,08,23,16,26,20.70
2011,08,23,16,27,20.70
2011,08,23,16,28,20.60
2011,08,23,16,29,20.50
2011,08,23,16,30,20.50
2011,08,23,16,31,20.40
2011,08,23,16,32,20.40
2011,08,23,16,33,20.40
2011,08,23,16,34,20.40
2011,08,23,16,35,20.40
2011,08,23,16,36,20.40
2011,08,23,16,37,20.40
2011,08,23,16,38,20.30
2011,08,23,16,39,20.30
2011,08,23,16,40,20.30
2011,08,23,16,41,20.30
2011,08,23,16,42,20.30
2011,08,23,16,43,20.30
2011,08,23,16,44,20.30
2011,08,23,16,45,20.30
2011,08,23,16,46,20.30
2011,08,23,16,47,20.30
2011,08,23,16,48,20.30
2011,08,23,16,49,20.40
2011,08,23,16,50,20.40
2011,08,23,16,51,20.40
2011,08,23,16,52,20.50
2011,08,23,16,53,20.50
2011,08,23,16,54,20.50
2011,08,23,16,55,20.50
2011,08,23,16,56,20.50
2011,08,23,16,57,20.50
2011,08,23,16,58,20.50
2011,08,23,16,59,20.50
2011,08,23,17,00,20.50
2011,08,23,17,01,20.40
2011,08,23,17,02,20.40
2011,08,23,17,03,20.40
2011,08,23,17,04,20.40
2011,08,23,17,05,20.40
2011,08,23,17,06,20.40
2011,08,23,17,07,20.40
2011,08,23,17,08,20.40
2011,08,23,17,09,20.40
2011,08,23,17,10,20.40
2011,08,23,17,11,20.40
2011,08,23,17,12,20.40
2011,08,23,17,13,20.40
2011,08,23,17,14,20.50
2011,08,23,17,15,20.50
2011,08,23,17,16,20.60
2011,08,23,17,17,20.60
2011,08,23,17,18,20.70
2011,08,23,17,19,20.70
2011,08,23,17,20,20.80
2011,08,23,17,21,20.80
2011,08,23,17,22,20.80
2011,08,23,17,23,20.80
2011,08,23,17,24,20.80
2011,08,23,17,25,20.80
2011,08,23,17,26,20.80
2011,08,23,17,27,20.90
2011,08,23,17,28,20.90
2011,08,23,17,29,20.90
2011,08,23,17,30,20.90
2011,08,23,17,31,20.90
2011,08,23,17,32,20.90
2011,08,23,17,33,20.90
2011,08,23,17,34,20.90
2011,08,23,17,35,21.00
2011,08,23,17,36,21.00
2011,08,23,17,37,21.00
2011,08,23,17,38,21.10
2011,08,23,17,39,21.10
2011,08,23,17,40,21.10
2011,08,23,17,41,21.10
2011,08,23,17,42,21.10
2011,08,23,17,43,21.10
2011,08,23,17,44,21.20
2011,08,23,17,45,21.20
2011,08,23,17,46,21.20
2011,08,23,17,47,21.20
2011,08,23,17,48,21.20
2011,08,23,17,49,21.20
2011,08,23,17,50,21.20
2011,08,23,17,51,21.10
2011,08,23,17,52,21.10
2011,08,23,17,53,21.10
2011,08,23,17,54,21.00
2011,08,23,17,55,21.00
2011,08,23,17,56,21.00
2011,08,23,17,57,21.00
2011,08,23,17,58,21.00
2011,08,23,17,59,21.00
2011,08,23,18,00,20.90
2011,08,23,18,01,20.90
2011,08,23,18,02,20.90
2011,08,23,18,03,20.90
2011,08,23,18,04,20.90
2011,08,23,18,05,20.90
2011,08,23,18,06,20.90
2011,08,23,18,07,20.90
2011,08,23,18,08,20.90
2011,08,23,18,09,20.90
2011,08,23,18,10,20.90
2011,08,23,18,11,20.90
2011,08,23,18,12,20.90
2011,08,23,18,13,20.90
2011,08,23,18,14,20.90
2011,08,23,18,15,20.90
2011,08,23,18,16,20.90
2011,08,23,18,17,20.90
2011,08,23,18,18,20.90
2011,08,23,18,19,20.90
2011,08,23,18,20,20.90
2011,08,23,18,21,20.90
2011,08,23,18,22,21.00
2011,08,23,18,23,21.00
2011,08,23,18,24,21.00
2011,08,23,18,25,20.90
2011,08,23,18,26,20.90
2011,08,23,18,27,20.90
2011,08,23,18,28,20.90
2011,08,23,18,29,20.90
2011,08,23,18,30,20.90
2011,08,23,18,31,20.80
2011,08,23,18,32,20.80
2011,08,23,18,33,20.90
2011,08,23,18,34,20.90
2011,08,23,18,35,20.90
2011,08,23,18,36,20.90
2011,08,23,18,37,21.00
2011,08,23,18,38,21.00
2011,08,23,18,39,21.00
2011,08,23,18,40,21.00
2011,08,23,18,41,21.00
2011,08,23,18,42,20.90
2011,08,23,18,43,20.90
2011,08,23,18,44,20.90
2011,08,23,18,45,20.90
2011,08,23,18,46,20.90
2011,08,23,18,47,20.80
2011,08,23,18,48,20.80
2011,08,23,18,49,20.80
2011,08,23,18,50,20.80
2011,08,23,18,51,20.80
2011,08,23,18,52,20.80
2011,08,23,18,53,20.80
2011,08,23,18,54,20.80
2011,08,23,18,55,20.80
2011,08,23,18,56,20.80
2011,08,23,18,57,20.80
2011,08,23,18,58,20.80
2011,08,23,18,59,20.70
2011,08,23,19,00,20.70
2011,08,23,19,01,20.70
2011,08,23,19,02,20.60
2011,08,23,19,03,20.60
2011,08,23,19,04,20.60
2011,08,23,19,05,20.60
2011,08,23,19,06,20.60
2011,08,23,19,07,20.60
2011,08,23,19,08,20.50
2011,08,23,19,09,20.50
2011,08,23,19,10,20.50
2011,08,23,19,11,20.50
2011,08,23,19,12,20.50
2011,08,23,19,13,20.50
2011,08,23,19,14,20.60
2011,08,23,19,15,20.60
2011,08,23,19,16,20.60
2011,08,23,19,17,20.60
2011,08,23,19,18,20.60
2011,08,23,19,19,20.60
2011,08,23,19,20,20.60
2011,08,23,19,21,20.60
2011,08,23,19,22,20.60
2011,08,23,19,23,20.60
2011,08,23,19,24,20.70
2011,08,23,19,25,20.70
2011,08,23,19,26,20.70
2011,08,23,19,27,20.70
2011,08,23,19,28,20.70
2011,08,23,19,29,20.70
2011,08,23,19,30,20.70
2011,08,23,19,31,20.70
2011,08,23,19,32,20.70
2011,08,23,19,33,20.70
2011,08,23,19,34,20.60
2011,08,23,19,35,20.50
2011,08,23,19,36,20.50
2011,08,23,19,37,20.40
2011,08,23,19,38,20.40
2011,08,23,19,39,20.40
2011,08,23,19,40,20.30
2011,08,23,19,41,20.30
2011,08,23,19,42,20.20
2011,08,23,19,43,20.20
2011,08,23,19,44,20.10
2011,08,23,19,45,20.00
2011,08,23,19,46,20.00
2011,08,23,19,47,19.90
2011,08,23,19,48,19.80
2011,08,23,19,49,19.80
2011,08,23,19,50,19.80
2011,08,23,19,51,19.70
2011,08,23,19,52,19.60
2011,08,23,19,53,19.60
2011,08,23,19,54,19.50
2011,08,23,19,55,19.40
2011,08,23,19,56,19.40
2011,08,23,19,57,19.30
2011,08,23,19,58,19.30
2011,08,23,19,59,19.20
2011,08,23,20,00,19.20
2011,08,23,20,01,19.10
2011,08,23,20,02,19.00
2011,08,23,20,03,19.00
2011,08,23,20,04,18.90
2011,08,23,20,05,18.90
2011,08,23,20,06,18.80
2011,08,23,20,07,18.80
2011,08,23,20,08,18.80
2011,08,23,20,09,18.80
2011,08,23,20,10,18.80
2011,08,23,20,11,18.80
2011,08,23,20,12,18.80
2011,08,23,20,13,18.80
2011,08,23,20,14,18.80
2011,08,23,20,15,18.80
2011,08,23,20,16,18.80
2011,08,23,20,17,18.80
